Location: Bishop�s Knoyle
(51.0728°N, 2.1714°W)
Time: 06:13:52
(UTC+00:00)

FO-29 - Visible Passes

Search period start: 05 December 2021 00:00
Search period end: 15 December 2021 00:00
Orbit: 799 x 1322 km, 98.5° (Epoch: 04 December)

Date Brightness Start Highest point End Pass type
(mag) Time Alt. Az. Time Alt. Az. Time Alt. Az.
05 Dec 11.5 18:58:52 10° N 18:58:52 10° N 18:58:55 10° N visible
07 Dec 11.4 18:53:41 10° N 18:53:41 10° N 18:53:43 10° N visible
09 Dec 11.4 18:48:28 10° N 18:48:28 10° N 18:48:33 10° N visible
10 Dec 11.6 19:39:05 10° N 19:39:05 10° N 19:39:09 10° N visible
11 Dec 11.4 18:43:14 11° N 18:43:14 11° N 18:43:22 10° N visible
12 Dec 12.2 07:22:17 10° NE 07:25:20 14° E 07:28:31 10° ESE visible
12 Dec 11.6 19:33:50 11° N 19:33:50 11° N 19:34:01 10° N visible
13 Dec 11.4 18:37:57 11° N 18:37:57 11° N 18:38:12 10° N visible
14 Dec 12.3 07:17:20 10° ENE 07:20:13 13° E 07:23:14 10° ESE visible
14 Dec 11.5 19:28:33 12° N 19:28:33 12° N 19:28:54 10° N visible
